Time,TemperatureF,DewpointF,PressureIn,WindDirection,WindDirectionDegrees,WindSpeedMPH,WindSpeedGustMPH,Humidity,HourlyPrecipIn,Conditions,Clouds,dailyrainin,SoftwareType,DateUTC
2013-01-12 00:01:00,35.3,10.4,29.42,NW,320,13.0,14.0,35,0.00,,---,0.00,VWS V14.01,2013-01-12 08:01:00,
2013-01-12 00:11:00,35.0,10.8,29.42,WNW,296,9.0,13.0,36,0.00,,---,0.00,VWS V14.01,2013-01-12 08:11:00,
2013-01-12 00:16:00,35.3,11.0,29.42,NW,319,6.0,16.0,36,0.00,,---,0.00,VWS V14.01,2013-01-12 08:16:00,
2013-01-12 00:21:00,35.2,10.9,29.42,WNW,302,7.0,13.0,36,0.00,,---,0.00,VWS V14.01,2013-01-12 08:21:00,
2013-01-12 00:26:00,35.3,11.0,29.42,WNW,292,10.0,13.0,36,0.00,,---,0.00,VWS V14.01,2013-01-12 08:26:00,
2013-01-12 00:31:00,35.3,11.0,29.42,NNW,342,13.0,14.0,36,0.00,,---,0.00,VWS V14.01,2013-01-12 08:31:00,
2013-01-12 00:41:00,35.3,11.6,29.42,NW,312,12.0,20.0,37,0.00,,---,0.00,VWS V14.01,2013-01-12 08:41:00,
2013-01-12 00:46:00,35.0,12.0,29.42,NW,319,14.0,17.0,38,0.00,,---,0.00,VWS V14.01,2013-01-12 08:46:00,
2013-01-12 00:51:00,34.9,11.9,29.42,NW,304,10.0,18.0,38,0.00,,---,0.00,VWS V14.01,2013-01-12 08:51:00,
2013-01-12 00:56:00,34.7,12.3,29.42,NW,325,12.0,14.0,39,0.00,,---,0.00,VWS V14.01,2013-01-12 08:56:00,
2013-01-12 01:01:00,34.7,12.3,29.43,NW,319,13.0,18.0,39,0.00,,---,0.00,VWS V14.01,2013-01-12 09:01:00,
2013-01-12 01:06:00,34.9,12.5,29.43,WNW,302,8.0,17.0,39,0.00,,---,0.00,VWS V14.01,2013-01-12 09:06:00,
2013-01-12 01:11:00,34.7,12.3,29.43,NNW,335,13.0,18.0,39,0.00,,---,0.00,VWS V14.01,2013-01-12 09:11:00,
2013-01-12 01:21:00,35.0,12.6,29.43,NNW,333,13.0,18.0,39,0.00,,---,0.00,VWS V14.01,2013-01-12 09:21:00,
2013-01-12 01:26:00,34.9,12.5,29.43,NW,319,9.0,18.0,39,0.00,,---,0.00,VWS V14.01,2013-01-12 09:26:00,
2013-01-12 01:31:00,34.7,12.3,29.43,NW,323,8.0,17.0,39,0.00,,---,0.00,VWS V14.01,2013-01-12 09:31:00,
2013-01-12 01:36:00,34.6,12.8,29.43,NW,316,7.0,12.0,40,0.00,,---,0.00,VWS V14.01,2013-01-12 09:36:00,
2013-01-12 01:46:00,34.9,12.5,29.43,NW,322,12.0,14.0,39,0.00,,---,0.00,VWS V14.01,2013-01-12 09:46:00,
2013-01-12 01:51:00,34.7,12.3,29.43,NW,313,13.0,14.0,39,0.00,,---,0.00,VWS V14.01,2013-01-12 09:51:00,
2013-01-12 01:56:00,34.9,12.5,29.43,NW,312,13.0,18.0,39,0.00,,---,0.00,VWS V14.01,2013-01-12 09:56:00,
2013-01-12 02:06:00,34.9,12.5,29.43,NW,308,10.0,17.0,39,0.00,,---,0.00,VWS V14.01,2013-01-12 10:06:00,
2013-01-12 02:11:00,35.0,12.0,29.43,NW,313,10.0,17.0,38,0.00,,---,0.00,VWS V14.01,2013-01-12 10:11:00,
2013-01-12 02:21:00,35.5,11.8,29.44,North,350,8.0,17.0,37,0.00,,---,0.00,VWS V14.01,2013-01-12 10:21:00,
2013-01-12 02:31:00,35.8,10.8,29.44,NNW,330,10.0,17.0,35,0.00,,---,0.00,VWS V14.01,2013-01-12 10:31:00,
2013-01-12 02:36:00,35.9,10.9,29.44,NNW,339,15.0,18.0,35,0.00,,---,0.00,VWS V14.01,2013-01-12 10:36:00,
2013-01-12 02:46:00,35.8,10.8,29.44,North,352,11.0,16.0,35,0.00,,---,0.00,VWS V14.01,2013-01-12 10:46:00,
2013-01-12 02:56:00,35.6,11.3,29.44,North,352,11.0,12.0,36,0.00,,---,0.00,VWS V14.01,2013-01-12 10:56:00,
2013-01-12 03:01:00,35.6,11.3,29.44,NNW,337,14.0,19.0,36,0.00,,---,0.00,VWS V14.01,2013-01-12 11:01:00,
2013-01-12 03:06:00,35.3,11.6,29.44,NNW,332,17.0,20.0,37,0.00,,---,0.00,VWS V14.01,2013-01-12 11:06:00,
2013-01-12 03:11:00,35.0,11.4,29.44,NW,313,18.0,21.0,37,0.00,,---,0.00,VWS V14.01,2013-01-12 11:11:00,
2013-01-12 03:16:00,34.7,11.7,29.44,NNW,337,17.0,21.0,38,0.00,,---,0.00,VWS V14.01,2013-01-12 11:16:00,
2013-01-12 03:26:00,34.1,11.2,29.44,NW,325,12.0,19.0,38,0.00,,---,0.00,VWS V14.01,2013-01-12 11:26:00,
2013-01-12 03:31:00,33.7,10.8,29.44,NNW,329,13.0,16.0,38,0.00,,---,0.00,VWS V14.01,2013-01-12 11:31:00,
2013-01-12 03:36:00,33.5,10.6,29.44,NW,323,7.0,17.0,38,0.00,,---,0.00,VWS V14.01,2013-01-12 11:36:00,
2013-01-12 03:41:00,33.4,10.5,29.44,WNW,301,11.0,22.0,38,0.00,,---,0.00,VWS V14.01,2013-01-12 11:41:00,
2013-01-12 03:46:00,33.2,10.4,29.44,NW,326,8.0,17.0,38,0.00,,---,0.00,VWS V14.01,2013-01-12 11:46:00,
2013-01-12 03:51:00,33.1,10.3,29.44,NW,322,12.0,18.0,38,0.00,,---,0.00,VWS V14.01,2013-01-12 11:51:00,
2013-01-12 03:56:00,32.8,10.6,29.44,North,349,14.0,18.0,39,0.00,,---,0.00,VWS V14.01,2013-01-12 11:56:00,
2013-01-12 04:01:00,32.7,9.9,29.44,NNW,347,10.0,19.0,38,0.00,,---,0.00,VWS V14.01,2013-01-12 12:01:00,
2013-01-12 04:11:00,32.5,9.7,29.44,NNW,329,17.0,20.0,38,0.00,,---,0.00,VWS V14.01,2013-01-12 12:11:00,
2013-01-12 04:21:00,32.4,10.2,29.45,NNW,333,14.0,19.0,39,0.00,,---,0.00,VWS V14.01,2013-01-12 12:21:00,
2013-01-12 04:26:00,32.4,10.2,29.45,NW,313,10.0,18.0,39,0.00,,---,0.00,VWS V14.01,2013-01-12 12:26:00,
2013-01-12 04:31:00,32.2,10.0,29.46,NNW,342,11.0,18.0,39,0.00,,---,0.00,VWS V14.01,2013-01-12 12:31:00,
2013-01-12 04:36:00,32.2,10.0,29.46,NNW,342,13.0,19.0,39,0.00,,---,0.00,VWS V14.01,2013-01-12 12:36:00,
2013-01-12 04:41:00,32.2,10.0,29.46,NW,326,15.0,19.0,39,0.00,,---,0.00,VWS V14.01,2013-01-12 12:41:00,
2013-01-12 04:46:00,32.2,10.0,29.46,NW,320,10.0,17.0,39,0.00,,---,0.00,VWS V14.01,2013-01-12 12:46:00,
2013-01-12 04:51:00,32.4,10.2,29.46,NW,311,17.0,19.0,39,0.00,,---,0.00,VWS V14.01,2013-01-12 12:51:00,
2013-01-12 05:01:00,32.4,9.6,29.46,NW,304,14.0,20.0,38,0.00,,---,0.00,VWS V14.01,2013-01-12 13:01:00,
2013-01-12 05:06:00,32.4,9.6,29.46,NW,313,13.0,20.0,38,0.00,,---,0.00,VWS V14.01,2013-01-12 13:06:00,
2013-01-12 05:16:00,32.4,9.1,29.46,NW,323,19.0,20.0,37,0.00,,---,0.00,VWS V14.01,2013-01-12 13:16:00,
2013-01-12 05:26:00,32.4,9.1,29.46,NNW,344,17.0,24.0,37,0.00,,---,0.00,VWS V14.01,2013-01-12 13:26:00,
2013-01-12 05:36:00,32.5,9.1,29.48,North,350,10.0,16.0,37,0.00,,---,0.00,VWS V14.01,2013-01-12 13:36:00,
2013-01-12 05:46:00,32.5,8.5,29.49,NNW,337,5.0,12.0,36,0.00,,---,0.00,VWS V14.01,2013-01-12 13:46:00,
2013-01-12 05:51:00,32.5,8.5,29.49,NNW,339,8.0,18.0,36,0.00,,---,0.00,VWS V14.01,2013-01-12 13:51:00,
2013-01-12 05:56:00,32.7,8.1,29.49,North,359,11.0,24.0,35,0.00,,---,0.00,VWS V14.01,2013-01-12 13:56:00,
2013-01-12 06:01:00,32.8,8.2,29.50,NW,325,8.0,18.0,35,0.00,,---,0.00,VWS V14.01,2013-01-12 14:01:00,
2013-01-12 06:11:00,32.7,8.1,29.50,NW,312,6.0,20.0,35,0.00,,---,0.00,VWS V14.01,2013-01-12 14:11:00,
2013-01-12 06:21:00,32.8,7.5,29.50,NNW,330,12.0,14.0,34,0.00,,---,0.00,VWS V14.01,2013-01-12 14:21:00,
2013-01-12 06:26:00,32.9,7.6,29.50,NNW,339,7.0,17.0,34,0.00,,---,0.00,VWS V14.01,2013-01-12 14:26:00,
2013-01-12 06:31:00,32.9,7.6,29.50,NW,311,6.0,17.0,34,0.00,,---,0.00,VWS V14.01,2013-01-12 14:31:00,
2013-01-12 06:41:00,32.7,7.4,29.50,NNW,328,9.0,18.0,34,0.00,,---,0.00,VWS V14.01,2013-01-12 14:41:00,
2013-01-12 06:46:00,32.4,7.2,29.51,NW,315,13.0,18.0,34,0.00,,---,0.00,VWS V14.01,2013-01-12 14:46:00,
2013-01-12 06:56:00,32.2,7.6,29.51,North,353,15.0,20.0,35,0.00,,---,0.00,VWS V14.01,2013-01-12 14:56:00,
2013-01-12 07:01:00,32.2,7.6,29.51,NW,326,8.0,24.0,35,0.00,,---,0.00,VWS V14.01,2013-01-12 15:01:00,
2013-01-12 07:06:00,32.1,7.6,29.51,NW,318,9.0,15.0,35,0.00,,---,0.00,VWS V14.01,2013-01-12 15:06:00,
2013-01-12 07:11:00,31.9,7.4,29.51,NW,323,8.0,14.0,35,0.00,,---,0.00,VWS V14.01,2013-01-12 15:11:00,
2013-01-12 07:21:00,32.4,7.2,29.52,NNW,330,18.0,20.0,34,0.00,,---,0.00,VWS V14.01,2013-01-12 15:21:00,
2013-01-12 07:26:00,32.5,7.3,29.52,NNW,330,12.0,18.0,34,0.00,,---,0.00,VWS V14.01,2013-01-12 15:26:00,
2013-01-12 07:31:00,32.7,7.4,29.52,NNW,330,12.0,19.0,34,0.00,,---,0.00,VWS V14.01,2013-01-12 15:31:00,
2013-01-12 07:36:00,32.7,7.4,29.52,NW,323,8.0,20.0,34,0.00,,---,0.00,VWS V14.01,2013-01-12 15:36:00,
2013-01-12 07:41:00,32.8,6.9,29.52,NNW,337,11.0,19.0,33,0.00,,---,0.00,VWS V14.01,2013-01-12 15:41:00,
2013-01-12 07:51:00,33.1,7.1,29.52,NNW,342,14.0,17.0,33,0.00,,---,0.00,VWS V14.01,2013-01-12 15:51:00,
2013-01-12 07:56:00,33.2,6.6,29.52,NNW,346,13.0,16.0,32,0.00,,---,0.00,VWS V14.01,2013-01-12 15:56:00,
2013-01-12 08:01:00,33.4,7.4,29.53,North,350,8.0,19.0,33,0.00,,---,0.00,VWS V14.01,2013-01-12 16:01:00,
2013-01-12 08:11:00,33.2,6.6,29.53,North,0,6.0,13.0,32,0.00,,---,0.00,VWS V14.01,2013-01-12 16:11:00,
2013-01-12 08:21:00,33.5,6.8,29.54,North,359,3.0,6.0,32,0.00,,---,0.00,VWS V14.01,2013-01-12 16:21:00,
2013-01-12 08:31:00,33.5,8.1,29.55,North,0,0.0,2.0,34,0.00,,---,0.00,VWS V14.01,2013-01-12 16:31:00,
2013-01-12 08:36:00,33.8,7.1,29.55,NW,306,6.0,6.0,32,0.00,,---,0.00,VWS V14.01,2013-01-12 16:36:00,
2013-01-12 08:41:00,34.1,5.9,29.55,West,270,3.0,6.0,30,0.00,,---,0.00,VWS V14.01,2013-01-12 16:41:00,
2013-01-12 08:51:00,34.6,5.6,29.54,SW,229,0.0,5.0,29,0.00,,---,0.00,VWS V14.01,2013-01-12 16:51:00,
2013-01-12 08:56:00,35.0,5.2,29.54,SW,229,0.0,1.0,28,0.00,,---,0.00,VWS V14.01,2013-01-12 16:56:00,
2013-01-12 09:06:00,36.3,5.5,29.54,ESE,102,0.0,3.0,27,0.00,,---,0.00,VWS V14.01,2013-01-12 17:06:00,
2013-01-12 09:11:00,36.2,6.2,29.54,East,100,2.0,3.0,28,0.00,,---,0.00,VWS V14.01,2013-01-12 17:11:00,
2013-01-12 09:16:00,36.5,5.7,29.53,ESE,103,1.0,4.0,27,0.00,,---,0.00,VWS V14.01,2013-01-12 17:16:00,
2013-01-12 09:26:00,35.9,5.2,29.53,ENE,62,2.0,7.0,27,0.00,,---,0.00,VWS V14.01,2013-01-12 17:26:00,
2013-01-12 09:31:00,35.9,5.2,29.54,ENE,78,2.0,7.0,27,0.00,,---,0.00,VWS V14.01,2013-01-12 17:31:00,
2013-01-12 09:41:00,36.8,6.0,29.54,NNE,27,3.0,5.0,27,0.00,,---,0.00,VWS V14.01,2013-01-12 17:41:00,
2013-01-12 09:46:00,36.9,6.1,29.54,East,100,1.0,4.0,27,0.00,,---,0.00,VWS V14.01,2013-01-12 17:46:00,
2013-01-12 09:51:00,37.0,6.1,29.54,NNE,23,0.0,5.0,27,0.00,,---,0.00,VWS V14.01,2013-01-12 17:51:00,
2013-01-12 09:56:00,37.3,6.4,29.54,NE,38,0.0,1.0,27,0.00,,---,0.00,VWS V14.01,2013-01-12 17:56:00,
2013-01-12 10:06:00,37.2,5.5,29.54,NW,309,0.0,3.0,26,0.00,,---,0.00,VWS V14.01,2013-01-12 18:06:00,
2013-01-12 10:11:00,37.3,6.4,29.54,NW,309,0.0,2.0,27,0.00,,---,0.00,VWS V14.01,2013-01-12 18:11:00,
2013-01-12 10:16:00,37.8,5.2,29.54,South,178,0.0,3.0,25,0.00,,---,0.00,VWS V14.01,2013-01-12 18:16:00,
2013-01-12 10:21:00,38.0,5.3,29.54,South,171,0.0,2.0,25,0.00,,---,0.00,VWS V14.01,2013-01-12 18:21:00,
2013-01-12 10:26:00,38.5,5.8,29.54,SSE,155,0.0,1.0,25,0.00,,---,0.00,VWS V14.01,2013-01-12 18:26:00,
2013-01-12 10:36:00,38.9,5.2,29.53,ESE,112,0.0,4.0,24,0.00,,---,0.00,VWS V14.01,2013-01-12 18:36:00,
2013-01-12 10:41:00,38.5,4.9,29.53,SE,130,2.0,5.0,24,0.00,,---,0.00,VWS V14.01,2013-01-12 18:41:00,
2013-01-12 10:46:00,38.3,4.7,29.53,ESE,117,3.0,3.0,24,0.00,,---,0.00,VWS V14.01,2013-01-12 18:46:00,
2013-01-12 10:56:00,38.3,5.6,29.53,SE,127,5.0,5.0,25,0.00,,---,0.00,VWS V14.01,2013-01-12 18:56:00,
2013-01-12 11:01:00,38.8,5.1,29.52,SE,140,3.0,7.0,24,0.00,,---,0.00,VWS V14.01,2013-01-12 19:01:00,
2013-01-12 11:06:00,38.9,6.1,29.52,SE,127,1.0,5.0,25,0.00,,---,0.00,VWS V14.01,2013-01-12 19:06:00,
2013-01-12 11:11:00,39.5,5.7,29.52,SE,145,2.0,3.0,24,0.00,,---,0.00,VWS V14.01,2013-01-12 19:11:00,
2013-01-12 11:16:00,39.3,5.5,29.52,ENE,78,2.0,7.0,24,0.00,,---,0.00,VWS V14.01,2013-01-12 19:16:00,
2013-01-12 11:21:00,39.2,5.4,29.52,North,4,0.0,3.0,24,0.00,,---,0.00,VWS V14.01,2013-01-12 19:21:00,
2013-01-12 11:31:00,40.3,6.4,29.50,ESE,113,0.0,5.0,24,0.00,,---,0.00,VWS V14.01,2013-01-12 19:31:00,
2013-01-12 11:36:00,40.2,5.4,29.50,ENE,75,1.0,6.0,23,0.00,,---,0.00,VWS V14.01,2013-01-12 19:36:00,
2013-01-12 11:41:00,39.6,5.8,29.50,ESE,104,0.0,6.0,24,0.00,,---,0.00,VWS V14.01,2013-01-12 19:41:00,
2013-01-12 11:46:00,40.1,6.2,29.50,NNE,17,1.0,3.0,24,0.00,,---,0.00,VWS V14.01,2013-01-12 19:46:00,
2013-01-12 11:56:00,40.5,5.6,29.50,ENE,68,0.0,2.0,23,0.00,,---,0.00,VWS V14.01,2013-01-12 19:56:00,
2013-01-12 12:01:00,40.6,5.7,29.49,ENE,66,0.0,1.0,23,0.00,,---,0.00,VWS V14.01,2013-01-12 20:01:00,
2013-01-12 12:06:00,41.1,6.1,29.49,ENE,62,3.0,6.0,23,0.00,,---,0.00,VWS V14.01,2013-01-12 20:06:00,
2013-01-12 12:11:00,41.1,5.2,29.49,ENE,62,1.0,5.0,22,0.00,,---,0.00,VWS V14.01,2013-01-12 20:11:00,
2013-01-12 12:16:00,41.2,5.2,29.48,East,93,1.0,3.0,22,0.00,,---,0.00,VWS V14.01,2013-01-12 20:16:00,
2013-01-12 12:26:00,40.9,5.0,29.48,ENE,78,4.0,6.0,22,0.00,,---,0.00,VWS V14.01,2013-01-12 20:26:00,
2013-01-12 12:36:00,40.3,4.5,29.49,NE,56,5.0,8.0,22,0.00,,---,0.00,VWS V14.01,2013-01-12 20:36:00,
2013-01-12 12:41:00,40.5,4.7,29.49,East,97,0.0,5.0,22,0.00,,---,0.00,VWS V14.01,2013-01-12 20:41:00,
2013-01-12 12:51:00,40.3,4.5,29.48,ENE,73,3.0,8.0,22,0.00,,---,0.00,VWS V14.01,2013-01-12 20:51:00,
2013-01-12 12:56:00,40.5,4.7,29.48,ENE,75,4.0,10.0,22,0.00,,---,0.00,VWS V14.01,2013-01-12 20:56:00,
2013-01-12 13:06:00,40.9,4.0,29.47,ENE,68,0.0,5.0,21,0.00,,---,0.00,VWS V14.01,2013-01-12 21:06:00,
2013-01-12 13:16:00,41.1,3.1,29.47,East,79,3.0,7.0,20,0.00,,---,0.00,VWS V14.01,2013-01-12 21:16:00,
2013-01-12 13:21:00,40.9,4.0,29.47,ENE,69,2.0,5.0,21,0.00,,---,0.00,VWS V14.01,2013-01-12 21:21:00,
2013-01-12 13:26:00,41.1,4.2,29.47,ENE,75,7.0,8.0,21,0.00,,---,0.00,VWS V14.01,2013-01-12 21:26:00,
2013-01-12 13:31:00,41.5,3.4,29.47,ENE,62,1.0,7.0,20,0.00,,---,0.00,VWS V14.01,2013-01-12 21:31:00,
2013-01-12 13:41:00,41.6,3.5,29.47,ENE,73,0.0,7.0,20,0.00,,---,0.00,VWS V14.01,2013-01-12 21:41:00,
2013-01-12 13:46:00,41.8,3.7,29.47,East,95,2.0,6.0,20,0.00,,---,0.00,VWS V14.01,2013-01-12 21:46:00,
2013-01-12 13:56:00,41.5,3.4,29.47,ESE,113,0.0,6.0,20,0.00,,---,0.00,VWS V14.01,2013-01-12 21:56:00,
2013-01-12 14:01:00,41.3,3.3,29.47,ENE,62,1.0,6.0,20,0.00,,---,0.00,VWS V14.01,2013-01-12 22:01:00,
2013-01-12 14:06:00,41.2,3.2,29.47,SE,127,2.0,7.0,20,0.00,,---,0.00,VWS V14.01,2013-01-12 22:06:00,
2013-01-12 14:11:00,41.5,3.4,29.47,ENE,68,1.0,8.0,20,0.00,,---,0.00,VWS V14.01,2013-01-12 22:11:00,
2013-01-12 14:16:00,41.9,3.8,29.46,ENE,69,1.0,6.0,20,0.00,,---,0.00,VWS V14.01,2013-01-12 22:16:00,
2013-01-12 14:21:00,41.9,3.8,29.46,ESE,113,0.0,6.0,20,0.00,,---,0.00,VWS V14.01,2013-01-12 22:21:00,
2013-01-12 14:31:00,41.9,2.7,29.46,SE,143,0.0,7.0,19,0.00,,---,0.00,VWS V14.01,2013-01-12 22:31:00,
2013-01-12 14:36:00,41.9,2.7,29.46,ENE,73,0.0,5.0,19,0.00,,---,0.00,VWS V14.01,2013-01-12 22:36:00,
2013-01-12 14:41:00,41.9,2.7,29.46,NNE,28,3.0,5.0,19,0.00,,---,0.00,VWS V14.01,2013-01-12 22:41:00,
2013-01-12 14:51:00,42.5,3.2,29.46,ENE,68,0.0,2.0,19,0.00,,---,0.00,VWS V14.01,2013-01-12 22:51:00,
2013-01-12 14:56:00,42.6,3.2,29.46,ENE,71,0.0,0.0,19,0.00,,---,0.00,VWS V14.01,2013-01-12 22:56:00,
2013-01-12 15:01:00,42.6,3.2,29.46,ENE,71,2.0,2.0,19,0.00,,---,0.00,VWS V14.01,2013-01-12 23:01:00,
2013-01-12 15:06:00,42.3,3.0,29.46,ENE,73,0.0,2.0,19,0.00,,---,0.00,VWS V14.01,2013-01-12 23:06:00,
2013-01-12 15:11:00,42.3,3.0,29.46,ENE,73,0.0,2.0,19,0.00,,---,0.00,VWS V14.01,2013-01-12 23:11:00,
2013-01-12 15:16:00,42.8,3.4,29.47,ENE,73,0.0,0.0,19,0.00,,---,0.00,VWS V14.01,2013-01-12 23:16:00,
2013-01-12 15:21:00,42.6,3.2,29.47,ENE,75,0.0,2.0,19,0.00,,---,0.00,VWS V14.01,2013-01-12 23:21:00,
2013-01-12 15:26:00,42.2,2.9,29.47,ENE,75,0.0,2.0,19,0.00,,---,0.00,VWS V14.01,2013-01-12 23:26:00,
2013-01-12 15:31:00,42.5,3.2,29.47,ENE,78,1.0,1.0,19,0.00,,---,0.00,VWS V14.01,2013-01-12 23:31:00,
2013-01-12 15:36:00,42.6,3.2,29.47,North,11,0.0,2.0,19,0.00,,---,0.00,VWS V14.01,2013-01-12 23:36:00,
2013-01-12 15:46:00,42.8,3.4,29.46,NNW,339,7.0,7.0,19,0.00,,---,0.00,VWS V14.01,2013-01-12 23:46:00,
2013-01-12 15:51:00,42.2,2.9,29.46,North,349,5.0,10.0,19,0.00,,---,0.00,VWS V14.01,2013-01-12 23:51:00,
2013-01-12 16:01:00,41.6,2.4,29.47,NE,52,0.0,2.0,19,0.00,,---,0.00,VWS V14.01,2013-01-13 00:01:00,
2013-01-12 16:06:00,41.6,2.4,29.47,NNW,344,0.0,4.0,19,0.00,,---,0.00,VWS V14.01,2013-01-13 00:06:00,
2013-01-12 16:11:00,41.6,2.4,29.47,NNW,343,0.0,0.0,19,0.00,,---,0.00,VWS V14.01,2013-01-13 00:11:00,
2013-01-12 16:16:00,41.8,3.7,29.47,NNW,343,0.0,0.0,20,0.00,,---,0.00,VWS V14.01,2013-01-13 00:16:00,
2013-01-12 16:26:00,41.6,2.4,29.47,NNW,336,7.0,8.0,19,0.00,,---,0.00,VWS V14.01,2013-01-13 00:26:00,
2013-01-12 16:31:00,41.3,2.2,29.47,North,357,6.0,8.0,19,0.00,,---,0.00,VWS V14.01,2013-01-13 00:31:00,
2013-01-12 16:36:00,41.1,3.1,29.47,NNE,14,0.0,7.0,20,0.00,,---,0.00,VWS V14.01,2013-01-13 00:36:00,
2013-01-12 16:41:00,40.9,2.9,29.47,North,3,0.0,6.0,20,0.00,,---,0.00,VWS V14.01,2013-01-13 00:41:00,
2013-01-12 16:46:00,40.8,3.9,29.47,NE,34,1.0,5.0,21,0.00,,---,0.00,VWS V14.01,2013-01-13 00:46:00,
2013-01-12 16:51:00,40.3,3.5,29.47,WNW,288,5.0,5.0,21,0.00,,---,0.00,VWS V14.01,2013-01-13 00:51:00,
2013-01-12 16:56:00,40.1,2.3,29.47,ESE,121,0.0,5.0,20,0.00,,---,0.00,VWS V14.01,2013-01-13 00:56:00,
2013-01-12 17:06:00,40.1,3.3,29.47,ESE,121,0.0,10.0,21,0.00,,---,0.00,VWS V14.01,2013-01-13 01:06:00,
2013-01-12 17:11:00,40.1,2.3,29.47,SW,222,1.0,7.0,20,0.00,,---,0.00,VWS V14.01,2013-01-13 01:11:00,
2013-01-12 17:16:00,39.6,2.9,29.47,North,6,1.0,10.0,21,0.00,,---,0.00,VWS V14.01,2013-01-13 01:16:00,
2013-01-12 17:21:00,39.5,3.8,29.47,NNE,20,6.0,6.0,22,0.00,,---,0.00,VWS V14.01,2013-01-13 01:21:00,
2013-01-12 17:31:00,39.1,3.5,29.48,NNE,21,2.0,3.0,22,0.00,,---,0.00,VWS V14.01,2013-01-13 01:31:00,
2013-01-12 17:36:00,38.6,3.0,29.48,North,8,0.0,3.0,22,0.00,,---,0.00,VWS V14.01,2013-01-13 01:36:00,
2013-01-12 17:41:00,38.3,3.8,29.48,North,11,0.0,0.0,23,0.00,,---,0.00,VWS V14.01,2013-01-13 01:41:00,
2013-01-12 17:51:00,37.9,3.4,29.49,North,10,0.0,0.0,23,0.00,,---,0.00,VWS V14.01,2013-01-13 01:51:00,
2013-01-12 17:56:00,37.6,3.2,29.49,North,11,0.0,1.0,23,0.00,,---,0.00,VWS V14.01,2013-01-13 01:56:00,
2013-01-12 18:01:00,37.6,4.1,29.49,North,10,0.0,0.0,24,0.00,,---,0.00,VWS V14.01,2013-01-13 02:01:00,
2013-01-12 18:06:00,37.2,3.8,29.49,NNE,14,0.0,1.0,24,0.00,,---,0.00,VWS V14.01,2013-01-13 02:06:00,
2013-01-12 18:11:00,36.9,4.4,29.49,North,11,0.0,0.0,25,0.00,,---,0.00,VWS V14.01,2013-01-13 02:11:00,
2013-01-12 18:21:00,37.0,4.5,29.49,North,11,0.0,1.0,25,0.00,,---,0.00,VWS V14.01,2013-01-13 02:21:00,
2013-01-12 18:26:00,36.9,3.5,29.49,NE,34,0.0,1.0,24,0.00,,---,0.00,VWS V14.01,2013-01-13 02:26:00,
2013-01-12 18:36:00,36.5,4.0,29.50,NNW,330,2.0,5.0,25,0.00,,---,0.00,VWS V14.01,2013-01-13 02:36:00,
2013-01-12 18:41:00,36.8,3.4,29.50,North,6,0.0,7.0,24,0.00,,---,0.00,VWS V14.01,2013-01-13 02:41:00,
2013-01-12 18:46:00,37.2,3.8,29.50,North,6,0.0,1.0,24,0.00,,---,0.00,VWS V14.01,2013-01-13 02:46:00,
2013-01-12 18:51:00,36.9,3.5,29.50,North,6,0.0,0.0,24,0.00,,---,0.00,VWS V14.01,2013-01-13 02:51:00,
2013-01-12 18:56:00,36.8,4.3,29.50,WNW,296,0.0,2.0,25,0.00,,---,0.00,VWS V14.01,2013-01-13 02:56:00,
2013-01-12 19:01:00,36.5,4.0,29.50,WNW,296,1.0,1.0,25,0.00,,---,0.00,VWS V14.01,2013-01-13 03:01:00,
2013-01-12 19:06:00,36.5,4.0,29.50,WNW,296,0.0,2.0,25,0.00,,---,0.00,VWS V14.01,2013-01-13 03:06:00,
2013-01-12 19:16:00,36.2,3.8,29.51,WNW,296,1.0,2.0,25,0.00,,---,0.00,VWS V14.01,2013-01-13 03:16:00,
2013-01-12 19:21:00,36.3,3.0,29.51,NW,323,5.0,6.0,24,0.00,,---,0.00,VWS V14.01,2013-01-13 03:21:00,
2013-01-12 19:26:00,36.5,2.2,29.51,NNW,329,5.0,9.0,23,0.00,,---,0.00,VWS V14.01,2013-01-13 03:26:00,
2013-01-12 19:36:00,36.2,2.9,29.50,NNW,332,1.0,6.0,24,0.00,,---,0.00,VWS V14.01,2013-01-13 03:36:00,
2013-01-12 19:41:00,35.8,2.5,29.50,NNW,344,5.0,6.0,24,0.00,,---,0.00,VWS V14.01,2013-01-13 03:41:00,
2013-01-12 19:46:00,35.8,2.5,29.51,NNW,332,7.0,11.0,24,0.00,,---,0.00,VWS V14.01,2013-01-13 03:46:00,
2013-01-12 19:56:00,35.5,2.3,29.51,NNW,333,5.0,8.0,24,0.00,,---,0.00,VWS V14.01,2013-01-13 03:56:00,
2013-01-12 20:01:00,35.2,2.9,29.51,NNW,342,3.0,8.0,25,0.00,,---,0.00,VWS V14.01,2013-01-13 04:01:00,
2013-01-12 20:06:00,35.0,2.8,29.51,NNW,332,4.0,7.0,25,0.00,,---,0.00,VWS V14.01,2013-01-13 04:06:00,
2013-01-12 20:11:00,35.3,3.0,29.51,North,352,3.0,8.0,25,0.00,,---,0.00,VWS V14.01,2013-01-13 04:11:00,
2013-01-12 20:21:00,36.0,3.6,29.50,North,349,6.0,11.0,25,0.00,,---,0.00,VWS V14.01,2013-01-13 04:21:00,
2013-01-12 20:26:00,35.9,3.5,29.50,North,352,7.0,8.0,25,0.00,,---,0.00,VWS V14.01,2013-01-13 04:26:00,
2013-01-12 20:31:00,35.8,3.4,29.51,NNW,330,7.0,11.0,25,0.00,,---,0.00,VWS V14.01,2013-01-13 04:31:00,
2013-01-12 20:41:00,35.9,3.5,29.51,North,353,9.0,11.0,25,0.00,,---,0.00,VWS V14.01,2013-01-13 04:41:00,
2013-01-12 20:46:00,35.6,4.1,29.51,North,354,12.0,12.0,26,0.00,,---,0.00,VWS V14.01,2013-01-13 04:46:00,
2013-01-12 20:51:00,35.6,3.3,29.51,NNW,342,7.0,13.0,25,0.00,,---,0.00,VWS V14.01,2013-01-13 04:51:00,
2013-01-12 21:01:00,35.5,4.0,29.51,NNW,328,10.0,11.0,26,0.00,,---,0.00,VWS V14.01,2013-01-13 05:01:00,
2013-01-12 21:06:00,35.6,4.1,29.51,NW,318,6.0,14.0,26,0.00,,---,0.00,VWS V14.01,2013-01-13 05:06:00,
2013-01-12 21:11:00,35.6,4.1,29.51,NW,325,9.0,14.0,26,0.00,,---,0.00,VWS V14.01,2013-01-13 05:11:00,
2013-01-12 21:16:00,35.6,4.1,29.50,NNW,329,6.0,14.0,26,0.00,,---,0.00,VWS V14.01,2013-01-13 05:16:00,
2013-01-12 21:26:00,35.5,4.0,29.50,NW,322,14.0,17.0,26,0.00,,---,0.00,VWS V14.01,2013-01-13 05:26:00,
2013-01-12 21:36:00,35.2,4.6,29.50,NW,326,8.0,17.0,27,0.00,,---,0.00,VWS V14.01,2013-01-13 05:36:00,
2013-01-12 21:41:00,34.9,4.3,29.50,North,352,8.0,15.0,27,0.00,,---,0.00,VWS V14.01,2013-01-13 05:41:00,
2013-01-12 21:46:00,34.7,4.2,29.51,NNW,344,6.0,15.0,27,0.00,,---,0.00,VWS V14.01,2013-01-13 05:46:00,
2013-01-12 21:51:00,34.7,4.2,29.51,NNW,337,9.0,12.0,27,0.00,,---,0.00,VWS V14.01,2013-01-13 05:51:00,
2013-01-12 22:01:00,34.4,3.9,29.51,NW,323,7.0,12.0,27,0.00,,---,0.00,VWS V14.01,2013-01-13 06:01:00,
2013-01-12 22:06:00,34.3,3.8,29.51,NW,323,7.0,11.0,27,0.00,,---,0.00,VWS V14.01,2013-01-13 06:06:00,
2013-01-12 22:16:00,34.1,4.4,29.52,NW,319,6.0,6.0,28,0.00,,---,0.00,VWS V14.01,2013-01-13 06:16:00,
2013-01-12 22:21:00,34.0,4.3,29.52,NW,313,0.0,8.0,28,0.00,,---,0.00,VWS V14.01,2013-01-13 06:21:00,
2013-01-12 22:26:00,33.8,3.4,29.52,NW,313,0.0,0.0,27,0.00,,---,0.00,VWS V14.01,2013-01-13 06:26:00,
2013-01-12 22:36:00,33.5,3.1,29.52,NNW,330,0.0,5.0,27,0.00,,---,0.00,VWS V14.01,2013-01-13 06:36:00,
2013-01-12 22:46:00,33.2,2.8,29.52,NNW,347,5.0,5.0,27,0.00,,---,0.00,VWS V14.01,2013-01-13 06:46:00,
2013-01-12 22:51:00,32.9,3.4,29.52,NNW,346,0.0,5.0,28,0.00,,---,0.00,VWS V14.01,2013-01-13 06:51:00,
2013-01-12 22:56:00,32.8,4.1,29.52,NNW,346,0.0,0.0,29,0.00,,---,0.00,VWS V14.01,2013-01-13 06:56:00,
2013-01-12 23:01:00,32.7,3.2,29.53,NNW,344,1.0,3.0,28,0.00,,---,0.00,VWS V14.01,2013-01-13 07:01:00,
2013-01-12 23:06:00,32.4,2.9,29.53,NNW,335,2.0,6.0,28,0.00,,---,0.00,VWS V14.01,2013-01-13 07:06:00,
2013-01-12 23:11:00,32.7,3.2,29.53,North,357,2.0,6.0,28,0.00,,---,0.00,VWS V14.01,2013-01-13 07:11:00,
2013-01-12 23:21:00,33.2,2.8,29.53,North,349,2.0,5.0,27,0.00,,---,0.00,VWS V14.01,2013-01-13 07:21:00,
2013-01-12 23:31:00,33.1,3.5,29.53,North,0,6.0,6.0,28,0.00,,---,0.00,VWS V14.01,2013-01-13 07:31:00,
2013-01-12 23:36:00,32.9,3.4,29.53,NNW,339,0.0,6.0,28,0.00,,---,0.00,VWS V14.01,2013-01-13 07:36:00,
2013-01-12 23:46:00,32.7,4.0,29.53,NNW,339,3.0,3.0,29,0.00,,---,0.00,VWS V14.01,2013-01-13 07:46:00,
2013-01-12 23:56:00,32.7,4.0,29.53,NNW,339,2.0,3.0,29,0.00,,---,0.00,VWS V14.01,2013-01-13 07:56:00,